Home > Weather > Neustrelitz > Past weeks

Flag for Germany Weather for the Past 2 Weeks in Neustrelitz, Mecklenburg-Western Pomerania, Germany

Now
39 °F

Fog.


Feels Like: 39 °F
Forecast: 44 / 66 °F
Wind: No wind

Location: Laage

Current Time: May 2, 2016 at 4:15:19 AM

Latest Report: May 2, 2016 at 3:20 AM


Visibility: 3 mi

Pressure: 30.33 "Hg

Humidity: 93%

Dew Point: 37 °F

Location of NeustrelitzLocation

Historic Weather in Neustrelitz — Graph

°F

Neustrelitz Temperature Yesterday

Maximum temperature yesterday: 59 °F (at 1:20 PM)
Minimum temperature yesterday: 45 °F (at 12:20 AM)
Average temperature yesterday: 51 °F

High & Low Weather Summary for the Past Weeks

 TemperatureHumidityPressure
High61 °F (Apr 30, 3:20 PM)100% (Apr 21, 5:20 AM)30.36 "Hg (Apr 21, 5:20 AM)
Low32 °F (Apr 25, 3:20 AM)27% (Apr 23, 6:20 PM)29.42 "Hg (Apr 26, 3:20 AM)
Average44 °F73%29.91 "Hg
* Reported Apr 17 2:20 AM — May 2 2:20 AM, Neustrelitz, Weather by CustomWeather, © 2016

Note: Actual official high and low records may vary slightly from our data, if they occured in-between our weather recording intervals... More about our weather records

Advertising

Neustrelitz Weather History for the Previous 24 Hours

Scroll right to see more
 ConditionsComfort  
Time TempWeatherWind HumidityBarometerVisibility
2:20 AM
Mon, May 2
41 °FQuite cool.No wind93%30.33 "Hg6 mi
1:20 AM41 °FQuite cool.2 mph93%30.33 "HgN/A
12:20 AM43 °FQuite cool.5 mph87%30.33 "HgN/A
11:20 PM
Sun, May 1
45 °FQuite cool.5 mph81%30.33 "HgN/A
10:20 PM46 °FPassing clouds.5 mph82%30.33 "HgN/A
9:20 PM50 °FPassing clouds.5 mph71%30.33 "HgN/A
8:20 PM52 °FPassing clouds.6 mph67%30.30 "HgN/A
7:20 PM55 °FRefreshingly cool.8 mph59%30.30 "HgN/A
6:20 PM57 °FRefreshingly cool.13 mph55%30.30 "HgN/A
5:20 PM57 °FRefreshingly cool.14 mph59%30.27 "HgN/A
4:20 PM59 °FPassing clouds.14 mph55%30.27 "HgN/A
3:20 PM59 °FPassing clouds.14 mph59%30.27 "HgN/A
2:20 PM59 °FPassing clouds.13 mph63%30.27 "HgN/A
1:20 PM59 °FPassing clouds.7 mph63%30.27 "HgN/A
12:20 PM57 °FPassing clouds.7 mph59%30.27 "HgN/A
11:20 AM55 °FPassing clouds.8 mph67%30.27 "HgN/A
10:20 AM52 °FBroken clouds.8 mph77%30.27 "HgN/A
9:20 AM48 °FBroken clouds.8 mph87%30.27 "HgN/A
8:20 AM46 °FPartly sunny.9 mph87%30.24 "HgN/A
7:20 AM45 °FPartly sunny.7 mph93%30.24 "HgN/A
6:20 AM45 °FPassing clouds.6 mph93%30.21 "HgN/A
5:20 AM45 °FPassing clouds.5 mph93%30.21 "HgN/A
4:20 AM45 °FPassing clouds.6 mph93%30.21 "HgN/A
Weather by CustomWeather, © 2016

See weather overviewHow to use our weather pages